Salisbury, MD

2:28 PM EDT on October 18, 2017 (GMT -0400)
Salisbury-Ocean City Wicomico Regional

Weather History for KSBY - March, 2014

Change the Weather History Date:

Friday, March 21, 2014

  Actual Average Record
Temperature  
Mean Temperature 47 °F 46 °F  
Max Temperature 62 °F 57 °F 85 °F (1948)
Min Temperature 32 °F 36 °F 3 °F (1914)
Degree Days  
Heating Degree Days 18 19  
Month to date heating degree days 490 458  
Since 1 July heating degree days 3630 3763  
Cooling Degree Days 0 0  
Month to date cooling degree days 0 0  
Year to date cooling degree days 0 0  
Moisture  
Dew Point 32 °F    
Average Humidity 59    
Maximum Humidity 85    
Minimum Humidity 33    
Precipitation  
Precipitation 0.00 in 0.14 in 3.47 in (2000)
Month to date precipitation 1.18 2.94  
Year to date precipitation 5.16 9.90  
Snow  
Snow 0.00 in 0.00 in 3.00 in (1926)
Month to date snowfall 7.0 0.7  
Since 1 July snowfall 18.5 9.0  
Snow Depth 0.00 in    
Sea Level Pressure  
Sea Level Pressure 30.06 in    
Wind  
Wind Speed 5 mph (WNW)    
Max Wind Speed 22 mph    
Max Gust Speed 28 mph    
Visibility 10 miles    
Events      
T = Trace of Precipitation, MM = Missing Value Source: NWS Daily Summary

Daily Weather History Graph

Daily Weather History Graph

Search for Another Location

Airport or City:

Trip Planner

Search our weather history database for the weather conditions in past years. The results will help you decide how hot, cold, wet, or windy it might be!

Date:

Astronomy

Mar. 21, 2014 Rise Set
Actual Time 7:04 AM EDT 7:14 PM EDT
Civil Twilight 6:37 AM EDT 7:41 PM EDT
Nautical Twilight 6:06 AM EDT 8:12 PM EDT
Astronomical Twilight 5:35 AM EDT 8:43 PM EDT
Moon No Moon Rise 9:57 AM EDT (3/21)
Length of Visible Light 13h 03m
Length of Day
12h 10m
Waning Gibbous, 75% of the Moon is Illuminated
Mar 21
Waning Gibbous
Mar 23
Last Quarter
Mar 30
New
Apr 7
First Quarter
Apr 15
Full

Hourly Weather History & Observations

Time (EDT) Temp. Windchill Dew Point Humidity Pressure Visibility Wind Dir Wind Speed Gust Speed Precip Events Conditions
12:54 AM 45.0 °F - 25.0 °F 46% 30.03 in 10.0 mi Calm Calm - N/A   Clear
1:54 AM 37.0 °F - 28.0 °F 70% 30.04 in 10.0 mi Calm Calm - N/A   Clear
2:54 AM 36.0 °F - 28.9 °F 76% 30.04 in 10.0 mi Calm Calm - N/A   Clear
3:54 AM 36.0 °F - 28.0 °F 73% 30.03 in 10.0 mi Calm Calm - N/A   Clear
4:54 AM 34.0 °F - 28.0 °F 79% 30.04 in 10.0 mi Calm Calm - N/A   Mostly Cloudy
5:54 AM 34.0 °F - 28.9 °F 82% 30.05 in 10.0 mi Calm Calm - N/A   Overcast
6:54 AM 33.1 °F - 28.0 °F 82% 30.06 in 10.0 mi Calm Calm - N/A   Scattered Clouds
7:54 AM 35.1 °F - 30.0 °F 82% 30.08 in 10.0 mi Calm Calm - N/A   Mostly Cloudy
8:54 AM 44.1 °F - 34.0 °F 68% 30.09 in 10.0 mi Calm Calm - N/A   Mostly Cloudy
9:54 AM 50.0 °F - 30.9 °F 48% 30.10 in 10.0 mi West 6.9 mph - N/A   Partly Cloudy
10:54 AM 53.1 °F - 32.0 °F 45% 30.10 in 10.0 mi West 12.7 mph 17.3 mph N/A   Scattered Clouds
11:54 AM 55.0 °F - 30.9 °F 40% 30.08 in 10.0 mi WSW 13.8 mph 18.4 mph N/A   Clear
12:54 PM 57.0 °F - 28.9 °F 34% 30.07 in 10.0 mi WNW 11.5 mph - N/A   Scattered Clouds
1:54 PM 60.1 °F - 32.0 °F 35% 30.04 in 10.0 mi WSW 10.4 mph 19.6 mph N/A   Clear
2:54 PM 60.1 °F - 32.0 °F 35% 30.03 in 10.0 mi WSW 12.7 mph 24.2 mph N/A   Scattered Clouds
3:54 PM 59.0 °F - 30.9 °F 35% 30.03 in 10.0 mi WNW 10.4 mph 19.6 mph N/A   Partly Cloudy
4:54 PM 57.0 °F - 34.0 °F 42% 30.04 in 10.0 mi NW 15.0 mph 20.7 mph N/A   Mostly Cloudy
5:54 PM 55.9 °F - 36.0 °F 47% 30.05 in 10.0 mi NW 11.5 mph 20.7 mph N/A   Overcast
6:54 PM 54.0 °F - 37.0 °F 53% 30.06 in 10.0 mi NNW 3.5 mph - N/A   Mostly Cloudy
7:54 PM 50.0 °F - 36.0 °F 59% 30.08 in 10.0 mi Calm Calm - N/A   Mostly Cloudy
8:54 PM 44.1 °F 40.1 °F 36.0 °F 73% 30.09 in 10.0 mi SSE 6.9 mph - N/A   Clear
9:54 PM 43.0 °F - 36.0 °F 76% 30.08 in 10.0 mi Calm Calm - N/A   Clear
10:54 PM 43.0 °F 40.3 °F 35.1 °F 74% 30.07 in 10.0 mi ENE 4.6 mph - N/A   Clear
11:54 PM 39.9 °F 35.8 °F 35.1 °F 83% 30.06 in 10.0 mi ESE 5.8 mph - N/A   Clear